Regional Weather Roundup
Issued by NWS

Home | Current Version | Previous Version | Graphics & Text | Print | Product List | Glossary On
Versions: 1 2 3 4 5 6 7 8 9 10 11 12 13 14 15 16 17 18 19 20 21 22 23 24 25 26 27 28 29 30 31 32 33 34 35 36 37 38 39 40 41 42 43 44 45 46 47 48 49 50
000
ASUS43 KOAX 240302
RWRNE

WEATHER ROUNDUP FOR NEBRASKA
NATIONAL WEATHER SERVICE OMAHA NE
1000 PM CDT SUN APR 23 2017

NOTES: SATELLITE DATA IS BEING USED TO AUGMENT CLOUD COVER ABOVE
       12000 FEET.
       "FAIR" INDICATES FEW OR NO CLOUDS BELOW 12,000 FEET WITH NO
       SIGNIFICANT WEATHER AND/OR OBSTRUCTIONS TO VISIBILITY.

  * THESE STATIONS DO NOT REPORT WEATHER SUCH AS RAIN...SNOW OR FOG.

NEZ001>004-019>022-054>056-240400-
NEBRASKA PANHANDLE

CITY           SKY/WX    TMP DP  RH WIND       PRES   REMARKS
SCOTTSBLUFF    CLOUDY    60  37  42 SE9       29.65R
ALLIANCE       PTCLDY    54  40  59 SE9       29.65S
CHADRON        PTCLDY    62  41  46 S15       29.59F
KIMBALL        CLOUDY    53  43  70 S10       29.71R
SIDNEY         CLOUDY    54  39  57 S10       29.69S
$$

NEZ057>060-069>072-079>082-240400-
SOUTHWEST NEBRASKA

CITY           SKY/WX    TMP DP  RH WIND       PRES   REMARKS
NORTH PLATTE   CLOUDY    61  35  37 SE12      29.74F
IMPERIAL       CLOUDY    57  39  51 S16       29.71F
LEXINGTON      CLOUDY    59  30  32 S20G25    29.79F
MCCOOK         CLOUDY    59  30  33 S10       29.76F
OGALLALA       CLOUDY    60  39  44 SE10      29.71R
$$

NEZ005>010-023>029-035>040-094-240400-
NORTH CENTRAL NEBRASKA

CITY           SKY/WX    TMP DP  RH WIND       PRES   REMARKS
VALENTINE      MOCLDY    65  37  35 S17       29.68S
AINSWORTH      PTCLDY    58  36  43 S12       29.71F
BROKEN BOW     CLOUDY    57  29  34 S12       29.77F
O`NEILL        PTCLDY    59  28  31 S12       29.78S
ORD            MOCLDY    59  30  33 S14       29.78F
THEDFORD       CLOUDY    62  36  38 S15       29.73S
$$

NEZ041-046>049-061>064-073>077-083>087-240400-
SOUTH CENTRAL NEBRASKA

CITY           SKY/WX    TMP DP  RH WIND       PRES   REMARKS
GRAND ISLAND   CLOUDY    57  33  40 S13       29.85S
AURORA         PTCLDY    58  32  37 S15       29.86S
HASTINGS       CLOUDY    58  32  37 S13       29.87R
HEBRON         CLOUDY    57  32  39 S10       29.91R
HOLDREGE       PTCLDY    58  31  36 S16       29.82F
KEARNEY *      PTCLDY    57  30  35 S15       29.83F
YORK           CLOUDY    57  30  35 S14       29.88R
$$

NEZ011>018-030>034-042>045-240400-
NORTHEAST NEBRASKA

CITY           SKY/WX    TMP DP  RH WIND       PRES   REMARKS
NORFOLK        PTCLDY    58  29  33 S14       29.83R
ALBION         CLOUDY    56  32  39 S12       29.83S
BLAIR          CLEAR     60  31  33 S13       29.90S
FREMONT        CLEAR     60  29  31 S13       29.89S
TEKAMAH        CLEAR     53  37  54 S13       29.88R
WAYNE          MOCLDY    57  31  37 S15       29.84S
$$

NEZ050>053-065>068-078-088>093-240400-
SOUTHEAST NEBRASKA

CITY           SKY/WX    TMP DP  RH WIND       PRES   REMARKS
LINCOLN        CLOUDY    57  31  37 S12       29.91S
OMAHA EPPLEY   CLEAR     62  31  31 S14       29.91S
BEATRICE       PTCLDY    58  33  38 S10       29.91F
FALLS CITY     CLOUDY    57  35  43 S8        29.95S
NEBRASKA CITY  PTCLDY    57  26  30 S9        29.94S
PLATTSMOUTH    CLOUDY    60  24  25 S10       29.93S
$$

NEZ044-045-051>053-067-240400-
OMAHA AREA

CITY           SKY/WX    TMP DP  RH WIND       PRES   REMARKS
OMAHA EPPLEY   CLEAR     62  31  31 S14       29.91S
BLAIR          CLEAR     60  31  33 S13       29.90S
FREMONT        CLEAR     60  29  31 S13       29.89S
MILLARD        PTCLDY    59  35  39 SE7       29.91S
OFFUTT AFB     CLOUDY    58  32  36 SE7       29.91S
PLATTSMOUTH    CLOUDY    60  24  25 S10       29.93S
WAHOO          FAIR      52  32  45 S9        29.89F
$$




USA.gov is the U.S. government's official web portal to all federal, state and local government web resources and services.